Weather in Kamianka

Ukraine / Zhytomyr Region     50°20′24″N   28°35′19″E
temp.,
°C
wind,
m/s
gust,
m/s
humid.,
%
clouds,
%
prec.,
mm/h
press.,
hPa
HPBL,
m
9 may, sun
sun900:00+2wnw36933 0.0 1020119
03:00+1wnw37940 0.0 1021136
06:00+1w37950 0.0 1023146
09:00+7nw46720 0.0 1025575
12:00+11nw455452 0.0 10241705
15:00+13nw354691 0.1 10242126
18:00+13nw234551 0.0 10241928
21:00+7sse01640 0.0 102610
10 may, mon
mon1000:00+6sse34715 0.0 102743
03:00+5s35765 0.0 102772
06:00+4sse33770 0.0 102744
09:00+11sse45615 0.0 1028387
12:00+15sse45506 0.0 10271391
15:00+16se444783 0.0 10261573
18:00+16se44530 0.0 10251383
21:00+10ese46720 0.0 102580
11 may, tue
tue1100:00+8ese45790 0.0 102680
03:00+6ese34790 0.0 102656
06:00+5e33790 0.0 102538
09:00+11ene47610 0.0 1024462
12:00+15ene56450 0.0 10231023
15:00+17ene45516 0.0 10211043
18:00+17ene57625 0.0 10191073
21:00+12ene368881 0.0 101985
12 may, wed
wed1200:00+11e511950 0.0 1019448
03:00+8e4109713 0.0 1018287
06:00+6e389627 0.0 1018202
09:00+11ene587036 0.0 1016782
12:00+12ene6865100 0.1 10151468
15:00+12ese466893 0.5 10141252
18:00+12e346248 0.3 10131014
21:00+8e478998 0.3 1012138
13 may, thu
thu1300:00+6ese3695100 0.0 1012114
03:00+6ese3793100 0.0 1011178
06:00+6ese4993100 0.4 1010289
09:00+7ese51393100 1.6 1009550
12:00+14se91473100 0.4 10081444
15:00+13se71283100 0.9 10071038
18:00+14sse6128099 0.6 1006576
21:00+12sse3108895 0.8 1006315